| time (UTC) | temp F | wind direction | speed MPH | gust MPH | rain 1hr in | rain 24hr in | rain mn in | humidity % | barometer mb |
| 20260505210443 | 76 | 303 | 7.0 | 23.0 | 0.00 | 0.05 | 0.05 | 30 | 883.3 |
| 20260505205942 | 76 | 223 | 8.0 | 24.0 | 0.00 | 0.05 | 0.05 | 27 | 883.3 |
| 20260505205443 | 75 | 329 | 9.0 | 24.0 | 0.00 | 0.05 | 0.05 | 26 | 883.4 |
| 20260505204941 | 76 | 231 | 9.0 | 21.0 | 0.00 | 0.05 | 0.05 | 27 | 883.3 |
| 20260505204440 | 75 | 277 | 9.0 | 21.0 | 0.00 | 0.05 | 0.05 | 30 | 883.3 |
| 20260505203940 | 76 | 228 | 9.0 | 25.0 | 0.00 | 0.05 | 0.05 | 28 | 883.4 |
| 20260505201927 | 75 | 220 | 7.0 | 14.0 | 0.00 | 0.05 | 0.05 | 31 | 883.4 |
| 20260505201428 | 76 | 215 | 6.0 | 16.0 | 0.00 | 0.05 | 0.05 | 30 | 883.4 |
| 20260505200928 | 76 | 250 | 7.0 | 16.0 | 0.00 | 0.05 | 0.05 | 32 | 883.5 |
| 20260505200429 | 75 | 240 | 7.0 | 16.0 | 0.00 | 0.05 | 0.05 | 30 | 883.5 |
| 20260505195430 | 75 | 267 | 7.0 | 16.0 | 0.00 | 0.05 | 0.05 | 32 | 883.5 |
| 20260505194929 | 75 | 240 | 7.0 | 18.0 | 0.00 | 0.05 | 0.05 | 32 | 883.6 |
| 20260505194428 | 74 | 158 | 8.0 | 18.0 | 0.00 | 0.05 | 0.05 | 32 | 883.7 |
| 20260505193927 | 74 | 219 | 9.0 | 21.0 | 0.00 | 0.05 | 0.05 | 34 | 883.8 |
| 20260505192927 | 75 | 232 | 8.0 | 15.0 | 0.00 | 0.05 | 0.05 | 34 | 884.0 |
| 20260505192424 | 74 | 204 | 8.0 | 15.0 | 0.00 | 0.05 | 0.05 | 33 | 884.0 |
| 20260505191924 | 74 | 194 | 8.0 | 17.0 | 0.00 | 0.05 | 0.05 | 35 | 884.1 |
| 20260505190923 | 73 | 202 | 11.0 | 20.0 | 0.00 | 0.05 | 0.05 | 36 | 884.3 |
| 20260505190426 | 73 | 214 | 8.0 | 20.0 | 0.00 | 0.05 | 0.05 | 36 | 884.1 |
| 20260505185924 | 73 | 270 | 7.0 | 17.0 | 0.00 | 0.05 | 0.05 | 39 | 884.3 |
| 20260505185425 | 72 | 232 | 8.0 | 17.0 | 0.00 | 0.05 | 0.05 | 35 | 884.3 |
| 20260505183920 | 73 | 272 | 7.0 | 16.0 | 0.00 | 0.05 | 0.05 | 39 | 884.6 |
| 20260505183420 | 73 | 218 | 7.0 | 16.0 | 0.00 | 0.05 | 0.05 | 40 | 884.7 |
| 20260505182921 | 72 | 184 | 9.0 | 16.0 | 0.00 | 0.05 | 0.05 | 42 | 884.6 |
| 20260505182421 | 72 | 226 | 8.0 | 20.0 | 0.00 | 0.05 | 0.05 | 42 | 884.7 |
| 20260505181918 | 71 | 246 | 7.0 | 20.0 | 0.00 | 0.05 | 0.05 | 43 | 884.6 |
| 20260505181418 | 71 | 248 | 7.0 | 14.0 | 0.00 | 0.05 | 0.05 | 45 | 884.7 |
| 20260505180919 | 69 | 216 | 5.0 | 14.0 | 0.00 | 0.05 | 0.05 | 47 | 884.9 |
| 20260505180418 | 68 | 196 | 2.0 | 5.0 | 0.00 | 0.05 | 0.05 | 57 | 884.9 |
| 20260505175917 | 67 | 132 | 2.0 | 5.0 | 0.00 | 0.05 | 0.05 | 57 | 884.8 |
| 20260505175418 | 66 | 84 | 2.0 | 5.0 | 0.00 | 0.05 | 0.05 | 60 | 884.9 |
| 20260505174410 | 65 | 81 | 1.0 | 5.0 | 0.00 | 0.05 | 0.05 | 64 | 884.9 |
| 20260505173404 | 64 | 89 | 2.0 | 4.0 | 0.00 | 0.05 | 0.05 | 68 | 885.1 |
| 20260505172905 | 63 | 91 | 1.0 | 4.0 | 0.00 | 0.05 | 0.05 | 67 | 885.2 |
| 20260505172405 | 63 | 102 | 1.0 | 3.0 | 0.00 | 0.05 | 0.05 | 68 | 885.3 |
| 20260505171903 | 63 | 344 | 1.0 | 3.0 | 0.00 | 0.05 | 0.05 | 69 | 885.3 |
| 20260505170904 | 62 | 68 | 1.0 | 5.0 | 0.00 | 0.05 | 0.05 | 70 | 885.3 |
| 20260505170403 | 62 | 62 | 1.0 | 5.0 | 0.00 | 0.05 | 0.05 | 71 | 885.2 |
| 20260505165900 | 62 | 52 | 1.0 | 4.0 | 0.00 | 0.05 | 0.05 | 72 | 885.2 |
| 20260505164901 | 62 | 132 | 1.0 | 2.0 | 0.00 | 0.05 | 0.05 | 74 | 885.3 |
| 20260505163857 | 62 | 87 | 0.0 | 3.0 | 0.00 | 0.05 | 0.05 | 75 | 885.3 |
| 20260505163400 | 61 | 280 | 0.0 | 0.0 | 0.00 | 0.05 | 0.05 | 76 | 885.3 |
| 20260505162855 | 61 | 13 | 0.0 | 0.0 | 0.00 | 0.05 | 0.05 | 77 | 885.4 |
| 20260505162355 | 60 | 53 | 0.0 | 0.0 | 0.00 | 0.05 | 0.05 | 77 | 885.5 |
| 20260505161855 | 60 | 359 | 0.0 | 0.0 | 0.00 | 0.05 | 0.05 | 80 | 885.4 |
| 20260505161349 | 60 | 359 | 0.0 | 0.0 | 0.00 | 0.05 | 0.05 | 80 | 885.5 |
| 20260505160843 | 60 | 359 | 0.0 | 0.0 | 0.00 | 0.05 | 0.05 | 81 | 885.5 |
| 20260505160342 | 60 | 359 | 0.0 | 0.0 | 0.00 | 0.05 | 0.05 | 81 | 885.5 |
| 20260505153256 | 58 | 359 | 1.0 | 3.0 | 0.00 | 0.05 | 0.05 | 83 | 885.3 |
| 20260505152751 | 58 | 346 | 1.0 | 2.0 | 0.00 | 0.05 | 0.05 | 84 | 885.3 |
| 20260505152245 | 58 | 54 | 1.0 | 2.0 | 0.00 | 0.05 | 0.05 | 85 | 885.1 |
| 20260505151739 | 58 | 6 | 0.0 | 2.0 | 0.00 | 0.05 | 0.05 | 85 | 885.3 |
| 20260505151232 | 57 | 6 | 1.0 | 2.0 | 0.00 | 0.05 | 0.05 | 86 | 885.2 |
| 20260505150726 | 57 | 7 | 1.0 | 3.0 | 0.00 | 0.05 | 0.05 | 86 | 885.3 |
| 20260505150221 | 57 | 335 | 1.0 | 3.0 | 0.00 | 0.05 | 0.05 | 87 | 885.3 |
| 20260505140614 | 56 | 307 | 1.0 | 4.0 | 0.00 | 0.05 | 0.05 | 88 | 884.9 |
| 20260505140108 | 56 | 338 | 0.0 | 4.0 | 0.00 | 0.05 | 0.05 | 88 | 884.8 |
| 20260505124548 | 56 | 148 | 2.0 | 6.0 | 0.00 | 0.04 | 0.04 | 85 | 884.4 |
| 20260505124048 | 56 | 106 | 2.0 | 6.0 | 0.00 | 0.04 | 0.04 | 84 | 884.5 |
| 20260505123550 | 56 | 169 | 2.0 | 6.0 | 0.00 | 0.04 | 0.04 | 84 | 884.4 |
| 20260505123047 | 56 | 168 | 2.0 | 6.0 | 0.00 | 0.04 | 0.04 | 83 | 884.3 |
| 20260505121542 | 56 | 146 | 3.0 | 7.0 | 0.00 | 0.04 | 0.04 | 82 | 883.9 |
| 20260505120544 | 56 | 180 | 2.0 | 4.0 | 0.00 | 0.04 | 0.04 | 84 | 883.7 |
| 20260505120046 | 56 | 163 | 2.0 | 7.0 | 0.00 | 0.04 | 0.04 | 84 | 883.8 |
| 20260505115544 | 56 | 119 | 3.0 | 7.0 | 0.01 | 0.04 | 0.04 | 84 | 883.7 |
| 20260505114546 | 55 | 129 | 2.0 | 6.0 | 0.01 | 0.04 | 0.04 | 87 | 884.1 |
| 20260505114040 | 55 | 124 | 2.0 | 5.0 | 0.01 | 0.04 | 0.04 | 88 | 884.4 |
| 20260505113540 | 55 | 133 | 1.0 | 4.0 | 0.01 | 0.04 | 0.04 | 90 | 884.5 |
| 20260505113040 | 55 | 135 | 0.0 | 4.0 | 0.01 | 0.04 | 0.04 | 91 | 884.6 |
| 20260505112538 | 55 | 6 | 0.0 | 1.0 | 0.01 | 0.04 | 0.04 | 91 | 884.6 |
| 20260505112041 | 55 | 6 | 0.0 | 2.0 | 0.02 | 0.04 | 0.04 | 91 | 884.5 |
| 20260505111539 | 55 | 6 | 0.0 | 2.0 | 0.02 | 0.04 | 0.04 | 91 | 884.6 |
| 20260505111039 | 55 | 6 | 0.0 | 3.0 | 0.02 | 0.04 | 0.04 | 92 | 884.6 |
| 20260505110540 | 56 | 18 | 1.0 | 3.0 | 0.02 | 0.04 | 0.04 | 91 | 884.6 |
| 20260505102034 | 56 | 87 | 1.0 | 4.0 | 0.02 | 0.02 | 0.02 | 90 | 885.4 |
| 20260505101029 | 56 | 259 | 0.0 | 2.0 | 0.02 | 0.02 | 0.02 | 90 | 885.4 |
| 20260505100528 | 56 | 259 | 0.0 | 2.0 | 0.02 | 0.02 | 0.02 | 89 | 885.6 |
| 20260505095523 | 56 | 248 | 1.0 | 6.0 | 0.02 | 0.02 | 0.02 | 89 | 886.0 |
| 20260505095022 | 56 | 297 | 1.0 | 6.0 | 0.01 | 0.01 | 0.01 | 89 | 885.9 |
| 20260505094522 | 56 | 243 | 0.0 | 3.0 | 0.01 | 0.01 | 0.01 | 88 | 886.1 |
| 20260505094021 | 56 | 248 | 0.0 | 4.0 | 0.01 | 0.01 | 0.01 | 88 | 886.3 |
| 20260505093016 | 56 | 253 | 1.0 | 4.0 | 0.01 | 0.01 | 0.01 | 87 | 886.4 |
| 20260505092514 | 56 | 255 | 1.0 | 4.0 | 0.01 | 0.01 | 0.01 | 87 | 886.5 |
| 20260505091515 | 56 | 251 | 1.0 | 4.0 | 0.00 | 0.00 | 0.00 | 86 | 886.5 |
| 20260505091012 | 57 | 276 | 1.0 | 4.0 | 0.00 | 0.00 | 0.00 | 86 | 886.6 |
| 20260505090512 | 57 | 304 | 0.0 | 4.0 | 0.00 | 0.00 | 0.00 | 86 | 886.6 |
| 20260505090010 | 57 | 250 | 1.0 | 4.0 | 0.00 | 0.00 | 0.00 | 85 | 886.8 |
| 20260505085511 | 57 | 283 | 2.0 | 5.0 | 0.00 | 0.00 | 0.00 | 85 | 886.8 |
| 20260505085006 | 57 | 340 | 2.0 | 7.0 | 0.00 | 0.00 | 0.00 | 84 | 886.9 |
| 20260505084506 | 58 | 242 | 2.0 | 8.0 | 0.00 | 0.00 | 0.00 | 82 | 887.0 |
| 20260505084004 | 58 | 240 | 2.0 | 11.0 | 0.00 | 0.00 | 0.00 | 80 | 887.1 |
| 20260505083507 | 58 | 259 | 3.0 | 11.0 | 0.00 | 0.00 | 0.00 | 79 | 887.1 |
| 20260505082505 | 59 | 294 | 2.0 | 8.0 | 0.00 | 0.00 | 0.00 | 74 | 886.8 |
| 20260505081959 | 60 | 307 | 2.0 | 8.0 | 0.00 | 0.00 | 0.00 | 72 | 886.7 |
| 20260505081454 | 60 | 307 | 2.0 | 8.0 | 0.00 | 0.00 | 0.00 | 69 | 886.8 |
| 20260505080948 | 60 | 283 | 2.0 | 7.0 | 0.00 | 0.00 | 0.00 | 68 | 887.0 |
| 20260505075430 | 61 | 233 | 2.0 | 9.0 | 0.00 | 0.00 | 0.00 | 65 | 886.9 |
| 20260505074924 | 61 | 264 | 3.0 | 10.0 | 0.00 | 0.00 | 0.00 | 64 | 886.9 |
| 20260505074420 | 61 | 231 | 3.0 | 10.0 | 0.00 | 0.00 | 0.00 | 64 | 886.9 |
| 20260505073920 | 61 | 247 | 3.0 | 12.0 | 0.00 | 0.00 | 0.00 | 63 | 886.8 |
| 20260505073419 | 62 | 281 | 3.0 | 12.0 | 0.00 | 0.00 | 0.00 | 63 | 886.8 |
| 20260505072918 | 62 | 288 | 3.0 | 8.0 | 0.00 | 0.00 | 0.00 | 63 | 886.8 |
| 20260505071918 | 62 | 286 | 2.0 | 9.0 | 0.00 | 0.00 | 0.00 | 62 | 886.9 |
| 20260505071421 | 62 | 257 | 2.0 | 8.0 | 0.00 | 0.00 | 0.00 | 62 | 886.8 |
| 20260505070916 | 62 | 291 | 2.0 | 9.0 | 0.00 | 0.00 | 0.00 | 61 | 886.9 |
| 20260505070419 | 62 | 269 | 2.0 | 12.0 | 0.00 | 0.00 | 0.00 | 61 | 886.9 |
| 20260505065916 | 62 | 245 | 2.0 | 12.0 | 0.00 | 0.00 | 0.00 | 60 | 887.0 |
| 20260505064416 | 62 | 236 | 2.0 | 7.0 | 0.00 | 0.00 | 0.00 | 58 | 886.9 |
| 20260505063916 | 62 | 278 | 2.0 | 7.0 | 0.00 | 0.00 | 0.00 | 56 | 886.9 |
| 20260505063415 | 62 | 254 | 1.0 | 6.0 | 0.00 | 0.00 | 0.00 | 55 | 886.9 |
| 20260505062416 | 62 | 271 | 1.0 | 5.0 | 0.00 | 0.00 | 0.00 | 53 | 887.0 |
| 20260505061909 | 63 | 267 | 1.0 | 10.0 | 0.00 | 0.00 | 0.00 | 53 | 887.1 |
| 20260505061403 | 63 | 253 | 1.0 | 10.0 | 0.00 | 0.00 | 0.00 | 53 | 887.2 |
| 20260505060857 | 63 | 265 | 1.0 | 6.0 | 0.00 | 0.00 | 0.00 | 53 | 887.1 |
| 20260505060351 | 63 | 231 | 2.0 | 8.0 | 0.00 | 0.00 | 0.00 | 54 | 886.9 |
| 20260505055846 | 63 | 262 | 3.0 | 10.0 | 0.00 | 0.00 | 0.00 | 54 | 886.9 |
| 20260505055340 | 63 | 276 | 3.0 | 10.0 | 0.00 | 0.00 | 0.00 | 52 | 886.8 |
| 20260505054833 | 63 | 246 | 2.0 | 8.0 | 0.00 | 0.00 | 0.00 | 51 | 886.7 |
| 20260505054327 | 63 | 277 | 1.0 | 8.0 | 0.00 | 0.00 | 0.00 | 50 | 886.6 |
| 20260505053821 | 63 | 219 | 1.0 | 5.0 | 0.00 | 0.00 | 0.00 | 48 | 886.7 |
| 20260505052809 | 63 | 242 | 0.0 | 3.0 | 0.00 | 0.00 | 0.00 | 47 | 886.9 |
| 20260505052304 | 63 | 270 | 0.0 | 2.0 | 0.00 | 0.00 | 0.00 | 46 | 887.1 |
| 20260505051758 | 62 | 257 | 0.0 | 2.0 | 0.00 | 0.00 | 0.00 | 46 | 887.2 |
| 20260505051252 | 62 | 264 | 0.0 | 2.0 | 0.00 | 0.00 | 0.00 | 46 | 887.1 |
| 20260505050745 | 63 | 271 | 0.0 | 2.0 | 0.00 | 0.00 | 0.00 | 46 | 887.0 |
| 20260505050240 | 63 | 278 | 0.0 | 3.0 | 0.00 | 0.00 | 0.00 | 45 | 887.0 |
| 20260505041652 | 63 | 285 | 3.0 | 10.0 | 0.00 | 0.00 | 0.00 | 44 | 886.3 |
| 20260505041151 | 63 | 248 | 3.0 | 12.0 | 0.00 | 0.00 | 0.00 | 43 | 886.4 |
| 20260505040654 | 63 | 251 | 4.0 | 12.0 | 0.00 | 0.00 | 0.00 | 43 | 886.4 |
| 20260505040152 | 63 | 251 | 3.0 | 10.0 | 0.00 | 0.00 | 0.00 | 42 | 886.4 |
| 20260505035650 | 63 | 231 | 3.0 | 14.0 | 0.00 | 0.00 | 0.00 | 42 | 886.5 |
| 20260505034653 | 64 | 302 | 3.0 | 11.0 | 0.00 | 0.00 | 0.00 | 41 | 886.3 |
| 20260505034152 | 64 | 320 | 3.0 | 11.0 | 0.00 | 0.00 | 0.00 | 41 | 886.4 |
| 20260505033649 | 64 | 259 | 3.0 | 10.0 | 0.00 | 0.00 | 0.00 | 41 | 886.4 |
| 20260505033149 | 64 | 316 | 3.0 | 12.0 | 0.00 | 0.00 | 0.00 | 41 | 886.3 |
| 20260505032648 | 64 | 240 | 2.0 | 12.0 | 0.00 | 0.00 | 0.00 | 41 | 886.3 |
| 20260505032150 | 64 | 224 | 2.0 | 10.0 | 0.00 | 0.00 | 0.00 | 41 | 886.2 |
| 20260505031648 | 64 | 148 | 3.0 | 11.0 | 0.00 | 0.00 | 0.00 | 40 | 886.1 |
| 20260505031146 | 64 | 250 | 3.0 | 13.0 | 0.00 | 0.00 | 0.00 | 40 | 886.2 |
| 20260505030647 | 64 | 318 | 3.0 | 13.0 | 0.00 | 0.00 | 0.00 | 39 | 886.1 |
| 20260505030145 | 65 | 231 | 3.0 | 14.0 | 0.00 | 0.00 | 0.00 | 38 | 886.1 |
| 20260505025143 | 65 | 277 | 3.0 | 12.0 | 0.00 | 0.00 | 0.00 | 38 | 886.0 |
| 20260505024643 | 65 | 216 | 3.0 | 12.0 | 0.00 | 0.00 | 0.00 | 38 | 886.0 |
| 20260505024142 | 66 | 309 | 3.0 | 10.0 | 0.00 | 0.00 | 0.00 | 38 | 886.0 |
| 20260505023142 | 66 | 173 | 3.0 | 12.0 | 0.00 | 0.00 | 0.00 | 38 | 886.0 |
| 20260505022639 | 66 | 228 | 3.0 | 12.0 | 0.00 | 0.00 | 0.00 | 37 | 886.0 |
| 20260505022141 | 66 | 257 | 4.0 | 13.0 | 0.00 | 0.00 | 0.00 | 37 | 885.7 |
| 20260505021639 | 67 | 280 | 4.0 | 15.0 | 0.00 | 0.00 | 0.00 | 37 | 885.6 |
| 20260505020636 | 67 | 265 | 3.0 | 11.0 | 0.00 | 0.00 | 0.00 | 36 | 885.6 |
| 20260505020137 | 68 | 317 | 3.0 | 13.0 | 0.00 | 0.00 | 0.00 | 36 | 885.7 |
| 20260505015636 | 68 | 333 | 3.0 | 15.0 | 0.00 | 0.00 | 0.00 | 35 | 885.9 |
| 20260505015137 | 69 | 296 | 3.0 | 15.0 | 0.00 | 0.00 | 0.00 | 34 | 885.8 |
| 20260505014633 | 69 | 228 | 3.0 | 11.0 | 0.00 | 0.00 | 0.00 | 33 | 885.7 |
| 20260505013133 | 71 | 200 | 3.0 | 10.0 | 0.00 | 0.00 | 0.00 | 31 | 885.5 |
| 20260505012633 | 71 | 252 | 2.0 | 8.0 | 0.00 | 0.00 | 0.00 | 29 | 885.3 |
| 20260505011632 | 72 | 267 | 1.0 | 9.0 | 0.00 | 0.00 | 0.00 | 28 | 885.4 |
| 20260505011132 | 72 | 259 | 1.0 | 9.0 | 0.00 | 0.00 | 0.00 | 27 | 885.3 |
| 20260505010634 | 72 | 293 | 2.0 | 8.0 | 0.00 | 0.00 | 0.00 | 26 | 885.5 |
| 20260505010127 | 73 | 269 | 1.0 | 6.0 | 0.00 | 0.00 | 0.00 | 26 | 885.5 |
| 20260505005628 | 73 | 300 | 2.0 | 8.0 | 0.00 | 0.00 | 0.00 | 26 | 885.4 |
| 20260505005129 | 73 | 307 | 2.0 | 8.0 | 0.00 | 0.00 | 0.00 | 26 | 885.6 |
| 20260505004627 | 74 | 229 | 2.0 | 7.0 | 0.00 | 0.00 | 0.00 | 25 | 885.5 |
| 20260505004126 | 74 | 322 | 2.0 | 9.0 | 0.00 | 0.00 | 0.00 | 24 | 885.6 |
| 20260505003124 | 74 | 300 | 2.0 | 10.0 | 0.00 | 0.00 | 0.00 | 23 | 885.7 |
| 20260505002625 | 75 | 291 | 2.0 | 10.0 | 0.00 | 0.00 | 0.00 | 23 | 885.6 |
| 20260505001623 | 75 | 301 | 4.0 | 9.0 | 0.00 | 0.00 | 0.00 | 22 | 885.4 |
| 20260505000626 | 76 | 306 | 4.0 | 11.0 | 0.00 | 0.00 | 0.00 | 22 | 885.4 |
| 20260505000119 | 76 | 295 | 4.0 | 12.0 | 0.00 | 0.00 | 0.00 | 22 | 885.3 |
| 20260504235615 | 77 | 298 | 4.0 | 14.0 | 0.00 | 0.00 | 0.00 | 21 | 885.2 |
| 20260504235108 | 77 | 290 | 4.0 | 14.0 | 0.00 | 0.00 | 0.00 | 21 | 885.2 |
| 20260504234603 | 78 | 288 | 3.0 | 12.0 | 0.00 | 0.00 | 0.00 | 20 | 885.1 |
| 20260504234056 | 78 | 262 | 3.0 | 8.0 | 0.00 | 0.00 | 0.00 | 22 | 885.1 |
| 20260504233550 | 77 | 293 | 3.0 | 8.0 | 0.00 | 0.00 | 0.00 | 22 | 885.1 |
| 20260504232537 | 77 | 259 | 3.0 | 11.0 | 0.00 | 0.00 | 0.00 | 24 | 885.2 |
| 20260504232033 | 77 | 353 | 3.0 | 11.0 | 0.00 | 0.00 | 0.00 | 23 | 885.2 |
| 20260504231528 | 78 | 246 | 3.0 | 15.0 | 0.00 | 0.00 | 0.00 | 23 | 885.2 |
| 20260504230526 | 77 | 325 | 5.0 | 15.0 | 0.00 | 0.00 | 0.00 | 24 | 885.2 |
| 20260504230023 | 77 | 340 | 5.0 | 15.0 | 0.00 | 0.00 | 0.00 | 24 | 885.1 |
| 20260504225523 | 77 | 310 | 4.0 | 15.0 | 0.00 | 0.00 | 0.00 | 24 | 885.3 |
| 20260504225023 | 77 | 11 | 5.0 | 15.0 | 0.00 | 0.00 | 0.00 | 25 | 885.1 |
| 20260504224525 | 77 | 278 | 6.0 | 15.0 | 0.00 | 0.00 | 0.00 | 25 | 885.1 |
| 20260504224025 | 78 | 279 | 6.0 | 15.0 | 0.00 | 0.00 | 0.00 | 24 | 885.1 |
| 20260504223524 | 78 | 297 | 6.0 | 13.0 | 0.00 | 0.00 | 0.00 | 23 | 885.2 |
| 20260504223024 | 78 | 322 | 5.0 | 13.0 | 0.00 | 0.00 | 0.00 | 19 | 885.2 |
| 20260504222519 | 79 | 314 | 5.0 | 13.0 | 0.00 | 0.00 | 0.00 | 18 | 885.4 |
| 20260504222020 | 79 | 278 | 4.0 | 11.0 | 0.00 | 0.00 | 0.00 | 18 | 885.5 |
| 20260504221521 | 79 | 295 | 4.0 | 13.0 | 0.00 | 0.00 | 0.00 | 18 | 885.5 |
| 20260504221018 | 79 | 193 | 4.0 | 13.0 | 0.00 | 0.00 | 0.00 | 19 | 885.6 |
| 20260504220520 | 80 | 311 | 4.0 | 9.0 | 0.00 | 0.00 | 0.00 | 18 | 885.5 |
| 20260504220019 | 80 | 326 | 4.0 | 10.0 | 0.00 | 0.00 | 0.00 | 17 | 885.5 |
| 20260504215518 | 80 | 342 | 4.0 | 10.0 | 0.00 | 0.00 | 0.00 | 17 | 885.5 |
| 20260504215020 | 81 | 284 | 4.0 | 15.0 | 0.00 | 0.00 | 0.00 | 16 | 885.4 |
| 20260504214513 | 81 | 297 | 5.0 | 15.0 | 0.00 | 0.00 | 0.00 | 16 | 885.4 |
| 20260504214008 | 81 | 251 | 5.0 | 9.0 | 0.00 | 0.00 | 0.00 | 16 | 885.4 |
| 20260504212955 | 80 | 301 | 4.0 | 16.0 | 0.00 | 0.00 | 0.00 | 18 | 885.5 |
| 20260504212450 | 81 | 16 | 4.0 | 16.0 | 0.00 | 0.00 | 0.00 | 18 | 885.4 |
| 20260504211943 | 81 | 311 | 4.0 | 13.0 | 0.00 | 0.00 | 0.00 | 17 | 885.5 |
| 20260504211437 | 80 | 318 | 5.0 | 13.0 | 0.00 | 0.00 | 0.00 | 17 | 885.5 |
| 20260504210932 | 80 | 252 | 5.0 | 12.0 | 0.00 | 0.00 | 0.00 | 18 | 885.6 |